SAS197 ESSA-ESMQ

Flight info

Callsign SAS197
Flight time 0h 50m
Altitude 20000
Route NOSLI N850 TONSA L87 MOVIS
Aircraft AT76/M-SDFGIRY/S

Departure

Time 2026-05-06 16:41
Airport Stockholm-Arlanda Airport (ESSA)

Arrival

Time 2026-05-06 17:31
Airport Kalmar Airport (ESMQ)
Time Latitude Longitude Altitude Speed Heading
2026-05-06 16:15 59.65426 17.93772 107 ft 0 kts 256°
2026-05-06 16:33 59.65427 17.93775 108 ft 1 kts 256°
2026-05-06 16:33 59.65431 17.93807 105 ft 3 kts 258°
2026-05-06 16:33 59.65434 17.93847 106 ft 3 kts 263°
2026-05-06 16:34 59.65432 17.93922 109 ft 3 kts 306°
2026-05-06 16:34 59.65423 17.93940 107 ft 1 kts 346°
2026-05-06 16:34 59.65418 17.93942 107 ft 0 kts 346°
2026-05-06 16:36 59.65419 17.93942 107 ft 2 kts 346°
2026-05-06 16:37 59.65468 17.93918 110 ft 12 kts 346°
2026-05-06 16:37 59.65544 17.93881 110 ft 11 kts 346°
2026-05-06 16:37 59.65591 17.93762 110 ft 15 kts 256°
2026-05-06 16:37 59.65564 17.93556 109 ft 16 kts 257°
2026-05-06 16:38 59.65535 17.93329 108 ft 17 kts 254°
2026-05-06 16:38 59.65505 17.93094 108 ft 18 kts 257°
2026-05-06 16:38 59.65467 17.92863 107 ft 17 kts 252°
2026-05-06 16:38 59.65436 17.92644 107 ft 17 kts 293°
2026-05-06 16:39 59.65556 17.92517 101 ft 22 kts 346°
2026-05-06 16:39 59.65706 17.92440 101 ft 22 kts 346°
2026-05-06 16:39 59.65849 17.92453 103 ft 19 kts 14°
2026-05-06 16:39 59.65916 17.92302 108 ft 16 kts 279°
2026-05-06 16:40 59.65905 17.92111 111 ft 11 kts 206°
2026-05-06 16:40 59.65893 17.92106 111 ft 1 kts 191°
2026-05-06 16:40 59.65629 17.92020 105 ft 73 kts 190°
2026-05-06 16:40 59.64939 17.91742 239 ft 117 kts 188°
2026-05-06 16:41 59.64073 17.91393 677 ft 133 kts 187°
2026-05-06 16:41 59.63286 17.90573 1239 ft 134 kts 221°
2026-05-06 16:41 59.62714 17.89022 1835 ft 144 kts 231°
2026-05-06 16:41 59.62149 17.87353 2404 ft 142 kts 234°
2026-05-06 16:42 59.61592 17.85734 2704 ft 145 kts 233°
2026-05-06 16:42 59.60997 17.84060 2896 ft 157 kts 233°
2026-05-06 16:42 59.60335 17.82213 3172 ft 167 kts 233°
2026-05-06 16:42 59.59723 17.80284 3540 ft 166 kts 253°
2026-05-06 16:43 59.59772 17.77999 3928 ft 169 kts 277°
2026-05-06 16:43 59.59970 17.75680 4292 ft 172 kts 278°
2026-05-06 16:43 59.60174 17.73340 4658 ft 174 kts 278°
2026-05-06 16:43 59.60367 17.70971 5022 ft 175 kts 277°
2026-05-06 16:44 59.60463 17.68602 5392 ft 171 kts 256°
2026-05-06 16:44 59.59752 17.66841 5766 ft 170 kts 205°
2026-05-06 16:44 59.58616 17.66527 6122 ft 167 kts 185°
2026-05-06 16:44 59.57443 17.66378 6487 ft 169 kts 185°
2026-05-06 16:45 59.56268 17.66219 6842 ft 170 kts 188°
2026-05-06 16:45 59.55077 17.65889 7130 ft 175 kts 193°
2026-05-06 16:45 59.53867 17.65354 7402 ft 180 kts 199°
2026-05-06 16:45 59.52677 17.64625 7689 ft 182 kts 204°
2026-05-06 16:46 59.51485 17.63677 7947 ft 187 kts 207°
2026-05-06 16:46 59.50281 17.62606 8185 ft 194 kts 207°
2026-05-06 16:46 59.49000 17.61484 8431 ft 206 kts 207°
2026-05-06 16:46 59.47654 17.60306 8746 ft 216 kts 207°
2026-05-06 16:47 59.46249 17.59088 9083 ft 224 kts 207°
2026-05-06 16:47 59.44821 17.57856 9420 ft 229 kts 207°
2026-05-06 16:47 59.43343 17.56583 9743 ft 233 kts 207°
2026-05-06 16:47 59.41848 17.55301 10050 ft 236 kts 207°
2026-05-06 16:48 59.40338 17.54003 10346 ft 238 kts 207°
2026-05-06 16:48 59.38831 17.52712 10601 ft 234 kts 207°
2026-05-06 16:48 59.37355 17.51443 10816 ft 229 kts 207°
2026-05-06 16:48 59.35904 17.50195 11018 ft 227 kts 207°
2026-05-06 16:49 59.34459 17.48961 11222 ft 225 kts 207°
2026-05-06 16:49 59.33030 17.47739 11425 ft 223 kts 207°
2026-05-06 16:49 59.31630 17.46539 11626 ft 223 kts 207°
2026-05-06 16:49 59.30188 17.45305 11835 ft 228 kts 207°
2026-05-06 16:50 59.28715 17.44047 12036 ft 233 kts 207°
2026-05-06 16:50 59.27238 17.42775 12242 ft 234 kts 207°
2026-05-06 16:50 59.25742 17.41479 12414 ft 236 kts 207°
2026-05-06 16:50 59.24742 17.40602 12512 ft 238 kts 207°
2026-05-06 16:51 59.22710 17.38819 12737 ft 241 kts 207°
2026-05-06 16:51 59.21163 17.37494 12897 ft 243 kts 206°
2026-05-06 16:51 59.19607 17.36170 13059 ft 244 kts 206°
2026-05-06 16:51 59.18045 17.34845 13222 ft 245 kts 207°
2026-05-06 16:52 59.16478 17.33517 13358 ft 244 kts 206°
2026-05-06 16:52 59.14948 17.32227 13488 ft 242 kts 206°
2026-05-06 16:52 59.13391 17.30915 13630 ft 245 kts 206°
2026-05-06 16:52 59.11810 17.29579 13769 ft 249 kts 207°
2026-05-06 16:53 59.10213 17.28223 13899 ft 252 kts 207°
2026-05-06 16:53 59.08618 17.26874 14032 ft 253 kts 206°
2026-05-06 16:53 59.07014 17.25469 14177 ft 250 kts 212°
2026-05-06 16:53 59.05615 17.23470 14328 ft 250 kts 223°
2026-05-06 16:54 59.04315 17.21212 14477 ft 251 kts 225°
2026-05-06 16:54 59.03034 17.18957 14616 ft 246 kts 224°
2026-05-06 16:54 59.01758 17.16806 14762 ft 241 kts 223°
2026-05-06 16:54 59.00475 17.14743 14907 ft 237 kts 222°
2026-05-06 16:55 58.99214 17.12714 15060 ft 235 kts 222°
2026-05-06 16:55 58.97944 17.10679 15198 ft 239 kts 222°
2026-05-06 16:55 58.96658 17.08607 15324 ft 242 kts 222°
2026-05-06 16:55 58.95367 17.06535 15450 ft 245 kts 222°
2026-05-06 16:56 58.94050 17.04419 15581 ft 247 kts 222°
2026-05-06 16:56 58.92718 17.02286 15707 ft 248 kts 222°
2026-05-06 16:56 58.91275 17.00531 15836 ft 253 kts 200°
2026-05-06 16:56 58.89493 17.00461 15970 ft 258 kts 176°
2026-05-06 16:57 58.87752 17.00341 16102 ft 248 kts 198°
2026-05-06 16:57 58.86080 16.99447 16232 ft 250 kts 200°
2026-05-06 16:57 58.84389 16.98597 16361 ft 252 kts 197°
2026-05-06 16:57 58.82662 16.97911 16491 ft 254 kts 195°
2026-05-06 16:58 58.80912 16.97335 16622 ft 255 kts 194°
2026-05-06 16:58 58.79163 16.96772 16754 ft 255 kts 194°
2026-05-06 16:58 58.77435 16.96221 16891 ft 255 kts 194°
2026-05-06 16:58 58.75684 16.95660 17011 ft 255 kts 194°
2026-05-06 16:59 58.73937 16.95076 17145 ft 255 kts 195°
2026-05-06 16:59 58.72186 16.94483 17277 ft 255 kts 195°
2026-05-06 16:59 58.70440 16.93888 17413 ft 254 kts 195°
2026-05-06 16:59 58.68696 16.93292 17552 ft 254 kts 195°
2026-05-06 17:00 58.66962 16.92704 17681 ft 254 kts 195°
2026-05-06 17:00 58.65224 16.92113 17819 ft 253 kts 195°
2026-05-06 17:00 58.63490 16.91522 17956 ft 253 kts 195°
2026-05-06 17:00 58.61760 16.90936 18094 ft 252 kts 195°
2026-05-06 17:01 58.60032 16.90352 18235 ft 252 kts 195°
2026-05-06 17:01 58.58330 16.89774 18358 ft 251 kts 195°
2026-05-06 17:01 58.56613 16.89194 18476 ft 251 kts 195°
2026-05-06 17:01 58.55450 16.88800 18556 ft 250 kts 195°
2026-05-06 17:02 58.53178 16.88034 18712 ft 250 kts 195°
2026-05-06 17:02 58.51467 16.87455 18834 ft 249 kts 196°
2026-05-06 17:02 58.49757 16.86878 18955 ft 249 kts 196°
2026-05-06 17:02 58.48624 16.86496 19016 ft 249 kts 196°
2026-05-06 17:03 58.46916 16.85921 19152 ft 249 kts 196°
2026-05-06 17:03 58.45206 16.85348 19259 ft 248 kts 196°
2026-05-06 17:03 58.43523 16.84783 19383 ft 248 kts 196°
2026-05-06 17:03 58.41821 16.84211 19507 ft 247 kts 196°
2026-05-06 17:04 58.40123 16.83641 19628 ft 247 kts 196°
2026-05-06 17:04 58.38424 16.83073 19756 ft 247 kts 197°
2026-05-06 17:04 58.36734 16.82509 19873 ft 247 kts 197°
2026-05-06 17:04 58.35057 16.81948 19933 ft 249 kts 197°
2026-05-06 17:05 58.33340 16.81370 19963 ft 252 kts 196°
2026-05-06 17:05 58.31598 16.80786 19975 ft 252 kts 196°
2026-05-06 17:05 58.29884 16.80215 19980 ft 247 kts 196°
2026-05-06 17:05 58.28206 16.79661 19985 ft 250 kts 196°
2026-05-06 17:06 58.26477 16.79085 19985 ft 253 kts 196°
2026-05-06 17:06 58.24726 16.78501 19991 ft 256 kts 196°
2026-05-06 17:06 58.22974 16.77920 19997 ft 259 kts 196°
2026-05-06 17:06 58.21187 16.77328 19978 ft 261 kts 196°
2026-05-06 17:07 58.19386 16.76725 19981 ft 262 kts 196°
2026-05-06 17:07 58.17600 16.76136 19991 ft 263 kts 196°
2026-05-06 17:07 58.15783 16.75537 19992 ft 264 kts 196°
2026-05-06 17:07 58.13963 16.74933 19993 ft 265 kts 196°
2026-05-06 17:08 58.12136 16.74331 19991 ft 266 kts 196°
2026-05-06 17:08 58.10328 16.73737 19983 ft 267 kts 196°
2026-05-06 17:08 58.08496 16.73131 19992 ft 267 kts 196°
2026-05-06 17:08 58.06653 16.72525 19958 ft 268 kts 195°
2026-05-06 17:09 58.04797 16.71914 19861 ft 272 kts 195°
2026-05-06 17:09 58.02944 16.71305 19754 ft 275 kts 195°
2026-05-06 17:09 58.01051 16.70683 19630 ft 278 kts 195°
2026-05-06 17:09 57.99132 16.70054 19505 ft 280 kts 195°
2026-05-06 17:10 57.97200 16.69423 19355 ft 283 kts 195°
2026-05-06 17:10 57.95274 16.68788 19155 ft 279 kts 195°
2026-05-06 17:10 57.93360 16.68162 18899 ft 279 kts 195°
2026-05-06 17:10 57.91431 16.67529 18566 ft 282 kts 195°
2026-05-06 17:11 57.89519 16.66904 18229 ft 284 kts 194°
2026-05-06 17:11 57.87560 16.66267 17794 ft 286 kts 194°
2026-05-06 17:11 57.85585 16.65624 17387 ft 288 kts 193°
2026-05-06 17:11 57.83619 16.64990 16989 ft 289 kts 193°
2026-05-06 17:12 57.81624 16.64339 16591 ft 291 kts 193°
2026-05-06 17:12 57.79627 16.63685 16166 ft 289 kts 193°
2026-05-06 17:12 57.77649 16.63043 15758 ft 288 kts 193°
2026-05-06 17:12 57.75692 16.62413 15355 ft 287 kts 193°
2026-05-06 17:13 57.73722 16.61780 14949 ft 287 kts 193°
2026-05-06 17:13 57.71757 16.61146 14551 ft 282 kts 193°
2026-05-06 17:13 57.69856 16.60530 14164 ft 278 kts 192°
2026-05-06 17:13 57.67957 16.59919 13771 ft 275 kts 192°
2026-05-06 17:14 57.66078 16.59316 13341 ft 272 kts 192°
2026-05-06 17:14 57.64214 16.58716 12905 ft 270 kts 192°
2026-05-06 17:14 57.62391 16.58129 12485 ft 268 kts 192°
2026-05-06 17:14 57.60549 16.57538 12057 ft 267 kts 191°
2026-05-06 17:15 57.58718 16.56952 11647 ft 266 kts 191°
2026-05-06 17:15 57.56894 16.56369 11234 ft 265 kts 191°
2026-05-06 17:15 57.55102 16.55767 10838 ft 264 kts 191°
2026-05-06 17:15 57.53304 16.55193 10451 ft 259 kts 189°
2026-05-06 17:16 57.51518 16.54773 10109 ft 255 kts 182°
2026-05-06 17:16 57.49820 16.54487 10037 ft 238 kts 193°
2026-05-06 17:16 57.48251 16.53699 10010 ft 230 kts 195°
2026-05-06 17:16 57.46735 16.52869 9993 ft 223 kts 197°
2026-05-06 17:17 57.45269 16.52032 9985 ft 217 kts 197°
2026-05-06 17:17 57.43844 16.51187 9980 ft 212 kts 199°
2026-05-06 17:17 57.42469 16.50254 9983 ft 209 kts 200°
2026-05-06 17:17 57.41121 16.49292 9981 ft 206 kts 201°
2026-05-06 17:18 57.39806 16.48236 9983 ft 207 kts 204°
2026-05-06 17:18 57.38500 16.47138 9978 ft 210 kts 205°
2026-05-06 17:18 57.37166 16.46010 9980 ft 212 kts 205°
2026-05-06 17:18 57.35827 16.44860 9977 ft 213 kts 205°
2026-05-06 17:19 57.34477 16.43703 9980 ft 214 kts 205°
2026-05-06 17:19 57.33127 16.42539 9984 ft 214 kts 205°
2026-05-06 17:19 57.31774 16.41375 9980 ft 215 kts 205°
2026-05-06 17:19 57.30415 16.40218 9980 ft 215 kts 205°
2026-05-06 17:20 57.29042 16.39069 9975 ft 217 kts 205°
2026-05-06 17:20 57.27657 16.37930 9980 ft 219 kts 205°
2026-05-06 17:20 57.26276 16.36797 9973 ft 221 kts 204°
2026-05-06 17:20 57.24863 16.35653 9976 ft 222 kts 204°
2026-05-06 17:21 57.23431 16.34567 9975 ft 223 kts 202°
2026-05-06 17:21 57.21972 16.33572 9972 ft 223 kts 200°
2026-05-06 17:21 57.20498 16.32643 9979 ft 224 kts 199°
2026-05-06 17:21 57.19019 16.31733 9971 ft 224 kts 199°
2026-05-06 17:22 57.17539 16.30833 9933 ft 226 kts 198°
2026-05-06 17:22 57.16023 16.29915 9772 ft 231 kts 198°
2026-05-06 17:22 57.14514 16.28996 9609 ft 232 kts 198°
2026-05-06 17:22 57.12967 16.28091 9444 ft 233 kts 197°
2026-05-06 17:23 57.11400 16.27304 9286 ft 234 kts 195°
2026-05-06 17:23 57.09810 16.26564 9117 ft 235 kts 194°
2026-05-06 17:23 57.08237 16.25850 8956 ft 236 kts 194°
2026-05-06 17:23 57.06611 16.25116 8759 ft 239 kts 194°
2026-05-06 17:24 57.05018 16.24398 8573 ft 239 kts 194°
2026-05-06 17:24 57.03401 16.23667 8390 ft 240 kts 194°
2026-05-06 17:24 57.01781 16.22896 8203 ft 240 kts 195°
2026-05-06 17:24 57.00160 16.22137 8024 ft 240 kts 194°
2026-05-06 17:25 56.98539 16.21390 7837 ft 240 kts 194°
2026-05-06 17:25 56.96916 16.20645 7651 ft 240 kts 194°
2026-05-06 17:25 56.95293 16.19900 7480 ft 240 kts 194°
2026-05-06 17:25 56.93669 16.19153 7301 ft 241 kts 194°
2026-05-06 17:26 56.92041 16.18406 7089 ft 241 kts 194°
2026-05-06 17:26 56.90417 16.17660 6835 ft 239 kts 194°
2026-05-06 17:26 56.88828 16.16885 6591 ft 238 kts 195°
2026-05-06 17:26 56.87233 16.16069 6342 ft 237 kts 195°
2026-05-06 17:27 56.85677 16.15241 6007 ft 222 kts 196°
2026-05-06 17:27 56.84263 16.14473 5691 ft 200 kts 195°
2026-05-06 17:27 56.82940 16.14155 5491 ft 180 kts 175°
2026-05-06 17:27 56.81834 16.14834 5363 ft 163 kts 147°
2026-05-06 17:28 56.80844 16.15873 5063 ft 165 kts 144°
2026-05-06 17:28 56.79880 16.16950 4839 ft 160 kts 144°
2026-05-06 17:28 56.78927 16.18014 4576 ft 163 kts 144°
2026-05-06 17:28 56.77968 16.19106 4228 ft 166 kts 143°
2026-05-06 17:29 56.77020 16.20209 3905 ft 156 kts 143°
2026-05-06 17:29 56.76144 16.21191 3545 ft 139 kts 143°
2026-05-06 17:29 56.75353 16.22080 3176 ft 128 kts 143°
2026-05-06 17:29 56.74584 16.22884 2672 ft 129 kts 146°
2026-05-06 17:30 56.73778 16.23656 2158 ft 131 kts 146°
2026-05-06 17:30 56.73008 16.24416 1748 ft 124 kts 145°
2026-05-06 17:30 56.72256 16.25165 1287 ft 123 kts 146°
2026-05-06 17:30 56.71504 16.25917 829 ft 122 kts 146°
2026-05-06 17:31 56.70765 16.26659 420 ft 121 kts 146°
2026-05-06 17:31 56.70033 16.27339 150 ft 113 kts 148°
2026-05-06 17:31 56.69390 16.27951 19 ft 94 kts 147°
2026-05-06 17:31 56.69104 16.28226 17 ft 28 kts 152°
2026-05-06 17:32 56.68872 16.28448 18 ft 48 kts 154°
2026-05-06 17:32 56.68622 16.28684 14 ft 31 kts 153°
2026-05-06 17:32 56.68461 16.28838 15 ft 23 kts 153°
2026-05-06 17:32 56.68306 16.28989 19 ft 14 kts 153°
2026-05-06 17:33 56.68221 16.29070 18 ft 22 kts 152°
2026-05-06 17:33 56.68061 16.29226 17 ft 14 kts 157°
2026-05-06 17:33 56.68005 16.29243 17 ft 24 kts 185°
2026-05-06 17:33 56.67857 16.29045 19 ft 14 kts 219°
2026-05-06 17:34 56.67822 16.28981 18 ft 7 kts 216°
2026-05-06 17:34 56.67778 16.28980 19 ft 0 kts 178°
2026-05-06 17:34 56.67783 16.28979 19 ft 3 kts 178°
2026-05-06 17:34 56.67791 16.28979 18 ft 0 kts 178°